Weather History for Newport News, VA

Change the Weather History Date:

Wednesday, July 17, 2013

  Actual Average Record
Temperature  
Mean Temperature 85 °F -  
Max Temperature 96 °F 88 °F 99 °F (1980)
Min Temperature 75 °F 70 °F 61 °F (1978)
Cooling Degree Days 20    
Growing Degree Days 35 (Base 50)    
Moisture  
Dew Point 71 °F    
Average Humidity 62    
Maximum Humidity 82    
Minimum Humidity 43    
Precipitation  
Precipitation 0.00 in - - ()
Sea Level Pressure  
Sea Level Pressure 30.16 in    
Wind  
Wind Speed 2 mph (ENE)    
Max Wind Speed 8 mph    
Max Gust Speed -    
Visibility 10 miles    
Events Rain    
Averages and records for this station are not official NWS values.
T = Trace of Precipitation, MM = Missing Value Source: NWS Daily Summary

Daily Weather History Graph

Daily Weather History Graph

Search for Another Location

Airport:

Trip Planner

Search our weather history database for the weather conditions in past years. The results will help you decide how hot, cold, wet, or windy it might be!

Date:

Astronomy

Jul. 17, 2013 Rise Set
Actual Time 5:59 AM EDT 8:24 PM EDT
Civil Twilight 5:29 AM EDT 8:54 PM EDT
Nautical Twilight 4:52 AM EDT 9:31 PM EDT
Astronomical Twilight 4:11 AM EDT 10:11 PM EDT
Moon 3:12 PM EDT (7/17) 1:02 AM EDT (7/17)
Length of Visible Light 15h 24m
Length of Day
14h 25m
Waxing Gibbous, 67% of the Moon is Illuminated
Jul 17
Waxing Gibbous
Jul 22
Full
Jul 29
Last Quarter
Aug 6
New
Aug 14
First Quarter

Hourly Weather History & Observations

Time (EDT) Temp. Heat Index Dew Point Humidity Pressure Visibility Wind Dir Wind Speed Gust Speed Precip Events Conditions
12:54 AM 75.9 °F - 70.0 °F 82% 30.17 in 7.0 mi Calm Calm - N/A   Clear
1:54 AM 77.0 °F - 70.0 °F 79% 30.17 in 9.0 mi Calm Calm - N/A   Clear
3:54 AM 77.0 °F - 71.1 °F 82% 30.17 in 9.0 mi Calm Calm - N/A   Clear
4:54 AM 78.1 °F - 71.1 °F 79% 30.18 in 10.0 mi Calm Calm - N/A   Clear
5:54 AM 78.1 °F - 71.1 °F 79% 30.18 in 8.0 mi Calm Calm - N/A   Clear
6:54 AM 79.0 °F - 71.1 °F 77% 30.19 in 8.0 mi Calm Calm - N/A   Clear
7:54 AM 82.9 °F 88.8 °F 73.0 °F 72% 30.20 in 9.0 mi Calm Calm - 0.00 in Rain Light Rain
8:54 AM 87.1 °F 93.6 °F 72.0 °F 61% 30.20 in 10.0 mi Calm Calm - 0.00 in   Clear
9:54 AM 90.0 °F 96.9 °F 72.0 °F 55% 30.19 in 10.0 mi Calm Calm - N/A   Clear
10:54 AM 91.9 °F 99.5 °F 72.0 °F 52% 30.19 in 10.0 mi Variable 3.5 mph - N/A   Clear
11:54 AM 93.0 °F 101.9 °F 73.0 °F 52% 30.19 in 10.0 mi ENE 3.5 mph - N/A   Clear
12:54 PM 95.0 °F 102.5 °F 71.1 °F 46% 30.18 in 10.0 mi North 6.9 mph - N/A   Clear
1:54 PM 95.0 °F 103.2 °F 72.0 °F 47% 30.17 in 10.0 mi NNE 5.8 mph - N/A   Partly Cloudy
2:54 PM 93.9 °F 100.8 °F 71.1 °F 47% 30.15 in 10.0 mi NE 6.9 mph - N/A   Scattered Clouds
3:54 PM 93.9 °F 100.8 °F 71.1 °F 47% 30.14 in 10.0 mi East 8.1 mph - N/A   Clear
4:54 PM 93.9 °F 98.6 °F 68.0 °F 43% 30.13 in 10.0 mi ENE 6.9 mph - N/A   Clear
5:54 PM 93.0 °F 97.4 °F 68.0 °F 44% 30.11 in 10.0 mi East 5.8 mph - N/A   Partly Cloudy
6:54 PM 91.0 °F 96.6 °F 70.0 °F 50% 30.11 in 10.0 mi ESE 5.8 mph - N/A   Mostly Cloudy
7:54 PM 87.1 °F 92.8 °F 71.1 °F 59% 30.11 in 10.0 mi East 4.6 mph - N/A   Clear
8:54 PM 82.9 °F 88.0 °F 72.0 °F 69% 30.12 in 10.0 mi East 3.5 mph - N/A   Mostly Cloudy
9:54 PM 82.9 °F 88.0 °F 72.0 °F 69% 30.14 in 10.0 mi Calm Calm - N/A   Overcast
10:54 PM 84.9 °F 90.1 °F 71.1 °F 63% 30.14 in 10.0 mi SSW 5.8 mph - N/A   Clear
11:54 PM 82.9 °F 88.8 °F 73.0 °F 72% 30.14 in 10.0 mi SSW 4.6 mph - N/A   Clear